Location: Tel Aviv
(32.0670°N, 34.7670°E)
Time: 05:52:12
(UTC+03:00)

Vanguard 2 - Pass Details

Date: 31 January 2022
Orbit: 552 x 2935 km, 32.9° (Epoch: 25 May)

Event Time Altitude Azimuth Distance (km) Brightness Sun altitude
Rises 22:54:26 0° 283° (WNW) 4,656 11.8 -69.9°
Enters shadow 22:54:33 - 283° (WNW) 4,622 11.7 -69.9°
Reaches altitude 10° 22:57:05 10° 281° (W) 3,941 - -70.3°
Maximum altitude 23:08:07 65° 202° (SSW) 2,492 - -71.8°
Drops below altitude 10° 23:24:45 10° 126° (SE) 5,691 - -73.7°
Sets 23:29:29 0° 124° (SE) 6,777 - -74.1°
